Portada
METAR-TAF:

METAR-TAF

Aeroports :

Walnut Ridge, Arkansas, Estats Units d'Amèrica

latitud: 36-08N, longitud: 090-55W, altitud: 83 m

Observació

L'informe es va fer fa 22 minuts, a les 22:56 UTC
Vent 5 kt del Oest/Nord-Oest
Temperatura 21°C
Humitat 43%
Pressió 1015 hPa
Visibilitat: 16.1 km
Cel clar

METAR: KARG 292256Z AUTO 30005KT 10SM CLR 21/08 A2997 RMK AO2 SLP149 T02060083

Hora: 18:18 (23:18 UTC)


TAF: manca

Observacions i pronòstics meteorològics de més de 4000 aeroports (METAR i TAF).

Les estacions disponibles són els punts grocs i vermells al mapa.

Posi el ratolí al punt desitjat per veure el nom de l'estació.

Feu clic per veure les observacions i els pronòstics meteorològics.

Per canviar el mapa: feu clic els botons verds amb una creu de color negre per apropar; al botó verd amb un guió per allunyar la imatge; o en les fletxes verdes per a mapes adjacents.


METAR-TAF: